QPF
0.00 0.00 0.00 0.00 0.00 0.00 0.00 0.00 0.00 0.00 0.00 0.00 0.00 0.00 0.00 0.00 0.00 0.00 0.00 0.00 0.00 0.00 0.00 0.00 0.00 0.00 0.00 0.00 0.00 0.00 0.00 0.00 0.00 0.00 0.01 0.00 0.01 0.02 0.02 0.01 0.02 0.02 0.02 0.00
0.00 0.00 0.00 0.00 0.00 0.00 0.00 0.00 0.00 0.00 0.00 0.00 0.00 0.00 0.00 0.00 0.00 0.00 0.00 0.00 0.00 0.00 0.00 0.00 0.00 0.00 0.00 0.00 0.00 0.00 0.00 0.00 0.00 0.00 0.00 0.00 0.02 0.07 0.12 0.10 0.09 0.07 0.05 0.01
0.00 0.00 0.00 0.00 0.00 0.00 0.00 0.00 0.00 0.00 0.00 0.00 0.00 0.00 0.00 0.00 0.00 0.00 0.00 0.00 0.00 0.00 0.00 0.00 0.00 0.00 0.00 0.00 0.00 0.00 0.00 0.00 0.00 0.00 0.00 0.00 0.00 0.01 0.15 0.09 0.06 0.04 0.04 0.01
0.00 0.00 0.00 0.00 0.00 0.00 0.00 0.00 0.00 0.00 0.00 0.00 0.00 0.00 0.00 0.00 0.00 0.00 0.00 0.00 0.00 0.00 0.00 0.00 0.00 0.00 0.00 0.00 0.00 0.00 0.00 0.00 0.00 0.00 0.00 0.00 0.00 0.00 0.03 0.04 0.04 0.03 0.03 0.01
0.00 0.00 0.00 0.00 0.00 0.00 0.00 0.00 0.00 0.00 0.00 0.00 0.00 0.00 0.00 0.00 0.00 0.00 0.00 0.00 0.00 0.00 0.00 0.00 0.00 0.00 0.00 0.00 0.00 0.00 0.00 0.00 0.00 0.00 0.00 0.00 0.00 0.00 0.00 0.01 0.02 0.02 0.01 0.00
0.00 0.00 0.00 0.00 0.00 0.00 0.00 0.00 0.00 0.00 0.00 0.00 0.00 0.00 0.00 0.00 0.00 0.00 0.00 0.00 0.00 0.00 0.00 0.00 0.00 0.00 0.00 0.00 0.00 0.00 0.00 0.00 0.00 0.00 0.00 0.00 0.00 0.00 0.00 0.00 0.01 0.00 0.00 0.00
0.00 0.00 0.00 0.00 0.00 0.00 0.00 0.00 0.00 0.00 0.00 0.00 0.00 0.00 0.00 0.00 0.00 0.00 0.00 0.00 0.00 0.00 0.00 0.00 0.00 0.00 0.00 0.00 0.00 0.00 0.00 0.00 0.00 0.00 0.00 0.00 0.00 0.00 0.00 0.00 0.00 0.00 0.00 0.01
0.00 0.00 0.00 0.00 0.00 0.00 0.00 0.00 0.00 0.00 0.00 0.00 0.00 0.00 0.00 0.00 0.00 0.00 0.00 0.00 0.00 0.00 0.00 0.00 0.00 0.00 0.00 0.00 0.00 0.00 0.00 0.00 0.00 0.00 0.00 0.00 0.00 0.00 0.01 0.01 0.01 0.02 0.04 0.04
0.00 0.00 0.00 0.00 0.00 0.00 0.00 0.00 0.00 0.00 0.00 0.00 0.00 0.00 0.00 0.00 0.00 0.00 0.00 0.00 0.00 0.00 0.00 0.00 0.00 0.00 0.00 0.00 0.00 0.00 0.00 0.00 0.00 0.00 0.00 0.00 0.00 0.00 0.01 0.01 0.02 0.04 0.06 0.04
0.00 0.00 0.00 0.00 0.00 0.00 0.00 0.00 0.00 0.00 0.00 0.00 0.00 0.00 0.00 0.00 0.00 0.00 0.00 0.00 0.00 0.00 0.00 0.00 0.00 0.00 0.00 0.00 0.00 0.00 0.00 0.00 0.00 0.00 0.00 0.00 0.01 0.01 0.01 0.01 0.02 0.06 0.05 0.01
0.00 0.00 0.00 0.00 0.00 0.01 0.01 0.01 0.00 0.00 0.00 0.00 0.00 0.00 0.00 0.00 0.00 0.00 0.00 0.00 0.00 0.00 0.00 0.00 0.00 0.00 0.00 0.00 0.00 0.00 0.00 0.00 0.00 0.01 0.02 0.01 0.01 0.00 0.00 0.01 0.01 0.02 0.01 0.00
0.00 0.00 0.00 0.01 0.01 0.02 0.03 0.02 0.03 0.03 0.02 0.01 0.00 0.00 0.00 0.00 0.00 0.00 0.00 0.00 0.00 0.00 0.00 0.00 0.00 0.00 0.00 0.00 0.00 0.00 0.00 0.00 0.00 0.00 0.00 0.00 0.00 0.00 0.00 0.00 0.00 0.00 0.00 0.00
0.00 0.00 0.01 0.01 0.00 0.00 0.01 0.01 0.02 0.03 0.02 0.02 0.01 0.01 0.01 0.00 0.00 0.00 0.00 0.00 0.00 0.00 0.00 0.00 0.00 0.00 0.00 0.00 0.00 0.00 0.00 0.00 0.00 0.00 0.00 0.00 0.00 0.00 0.00 0.00 0.00 0.00 0.00 0.00
0.01 0.01 0.01 0.00 0.00 0.00 0.00 0.00 0.00 0.00 0.02 0.01 0.00 0.00 0.01 0.01 0.00 0.00 0.00 0.00 0.00 0.00 0.00 0.00 0.00 0.00 0.00 0.00 0.00 0.00 0.00 0.00 0.00 0.00 0.00 0.00 0.00 0.00 0.00 0.00 0.00 0.00 0.00 0.00
0.00 0.01 0.02 0.00 0.00 0.00 0.00 0.00 0.00 0.00 0.00 0.00 0.00 0.00 0.00 0.00 0.00 0.00 0.00 0.00 0.00 0.00 0.00 0.00 0.00 0.00 0.00 0.00 0.00 0.00 0.00 0.00 0.00 0.00 0.00 0.00 0.00 0.00 0.00 0.00 0.00 0.00 0.00 0.00
0.01 0.00 0.00 0.00 0.00 0.00 0.00 0.00 0.00 0.00 0.00 0.00 0.00 0.00 0.00 0.00 0.00 0.00 0.00 0.00 0.00 0.00 0.00 0.00 0.00 0.00 0.00 0.00 0.00 0.00 0.00 0.00 0.00 0.00 0.00 0.00 0.00 0.00 0.00 0.00 0.00 0.00 0.00 0.00
0.00 0.00 0.00 0.00 0.00 0.00 0.00 0.00 0.00 0.00 0.00 0.00 0.00 0.00 0.00 0.00 0.00 0.00 0.00 0.00 0.00 0.00 0.00 0.00 0.00 0.00 0.00 0.00 0.00 0.00 0.00 0.00 0.00 0.00 0.00 0.00 0.00 0.00 0.00 0.00 0.00 0.00 0.00 0.00
0.00 0.00 0.00 0.00 0.00 0.00 0.00 0.00 0.00 0.00 0.00 0.00 0.00 0.00 0.00 0.00 0.00 0.00 0.00 0.00 0.00 0.00 0.00 0.00 0.00 0.00 0.00 0.00 0.00 0.00 0.00 0.00 0.00 0.00 0.00 0.00 0.00 0.00 0.00 0.00 0.00 0.00 0.00 0.00
0.00 0.00 0.00 0.00 0.00 0.00 0.00 0.00 0.00 0.00 0.00 0.00 0.00 0.00 0.00 0.00 0.00 0.00 0.00 0.00 0.00 0.00 0.00 0.00 0.00 0.00 0.00 0.00 0.00 0.00 0.00 0.00 0.00 0.00 0.00 0.00 0.00 0.00 0.00 0.00 0.00 0.00 0.00 0.00
0.00 0.00 0.00 0.00 0.00 0.00 0.00 0.00 0.00 0.00 0.00 0.00 0.00 0.00 0.00 0.00 0.00 0.00 0.00 0.00 0.00 0.00 0.00 0.00 0.00 0.00 0.00 0.00 0.00 0.00 0.00 0.00 0.00 0.00 0.00 0.00 0.00 0.01 0.01 0.00 0.00 0.00 0.00 0.00
0.00 0.00 0.00 0.00 0.00 0.00 0.00 0.00 0.00 0.00 0.00 0.00 0.00 0.00 0.00 0.00 0.00 0.00 0.00 0.00 0.00 0.00 0.00 0.00 0.00 0.00 0.00 0.00 0.00 0.00 0.00 0.00 0.00 0.00 0.00 0.00 0.00 0.01 0.02 0.02 0.00 0.00 0.00 0.00
0.00 0.00 0.00 0.00 0.00 0.00 0.00 0.00 0.00 0.00 0.00 0.00 0.00 0.00 0.00 0.00 0.00 0.00 0.00 0.00 0.00 0.00 0.00 0.00 0.00 0.00 0.00 0.00 0.00 0.00 0.00 0.00 0.00 0.00 0.01 0.02 0.02 0.02 0.02 0.00 0.00 0.00 0.00 0.00
0.00 0.00 0.00 0.00 0.00 0.00 0.00 0.00 0.00 0.00 0.00 0.00 0.00 0.00 0.00 0.00 0.00 0.00 0.00 0.00 0.00 0.00 0.00 0.00 0.00 0.00 0.00 0.00 0.00 0.00 0.00 0.00 0.00 0.00 0.00 0.00 0.00 0.00 0.00 0.00 0.00 0.00 0.00 0.00
0.00 0.00 0.00 0.00 0.00 0.00 0.00 0.00 0.00 0.00 0.00 0.00 0.00 0.00 0.00 0.00 0.00 0.00 0.00 0.00 0.00 0.00 0.00 0.00 0.00 0.00 0.00 0.00 0.00 0.00 0.00 0.00 0.00 0.00 0.00 0.00 0.00 0.00 0.00 0.00 0.00 0.00 0.00 0.00
0.00 0.00 0.00 0.00 0.00 0.00 0.00 0.00 0.00 0.00 0.00 0.00 0.00 0.00 0.00 0.00 0.00 0.00 0.00 0.00 0.00 0.00 0.00 0.00 0.00 0.00 0.00 0.00 0.00 0.00 0.00 0.00 0.00 0.00 0.00 0.00 0.00 0.00 0.00 0.00 0.00 0.00 0.00 0.00
0.00 0.00 0.00 0.00 0.00 0.00 0.00 0.00 0.00 0.00 0.00 0.00 0.00 0.00 0.00 0.00 0.00 0.00 0.00 0.00 0.00 0.00 0.00 0.00 0.00 0.00 0.00 0.00 0.00 0.00 0.00 0.00 0.00 0.00 0.00 0.00 0.00 0.00 0.00 0.00 0.00 0.00 0.00 0.00
0.00 0.00 0.00 0.00 0.00 0.00 0.00 0.00 0.00 0.00 0.00 0.00 0.00 0.00 0.00 0.00 0.00 0.00 0.00 0.00 0.00 0.00 0.00 0.00 0.00 0.00 0.00 0.00 0.00 0.00 0.00 0.00 0.00 0.00 0.00 0.00 0.00 0.00 0.00 0.00 0.00 0.00 0.00 0.00
MSLP
992.94 992.24 992.04 991.95 992.26 992.49 992.00 991.83 991.57 991.73 991.39 991.72 991.89 992.13 992.34 992.26 992.27 992.63 993.54 994.60 994.93 995.54 996.24 997.28 998.17 998.99 999.95 1000.73 1001.50 1002.16 1003.19 1004.22 1005.33 1006.61 1007.80 1008.49 1008.63 1009.28 1009.94 1010.58 1011.26 1012.01 1012.75 1013.03
992.88 992.48 992.00 991.33 991.34 991.48 991.56 991.78 991.65 991.58 990.71 991.28 991.56 992.13 991.99 991.96 991.96 992.25 992.86 993.85 994.46 995.32 995.99 996.70 997.43 998.44 999.47 1000.25 1001.04 1001.95 1002.60 1003.50 1004.90 1006.16 1007.26 1007.47 1008.30 1008.69 1009.48 1009.86 1010.38 1011.34 1011.88 1012.47
992.37 992.20 991.77 990.82 990.47 990.31 990.49 990.66 990.80 990.05 990.39 991.30 991.05 990.97 991.23 991.45 991.60 991.68 991.90 992.47 993.42 994.31 994.88 995.93 996.86 997.95 998.83 999.83 1000.70 1001.53 1002.21 1003.27 1004.44 1005.46 1006.40 1007.12 1007.69 1008.50 1008.83 1009.46 1010.34 1010.99 1011.53 1012.36
992.32 991.74 990.59 989.64 989.73 989.78 989.70 989.57 989.66 989.76 990.19 990.06 990.45 990.31 990.57 990.85 990.90 991.18 991.32 991.62 992.38 993.38 994.60 995.79 996.44 997.37 998.50 999.45 1000.31 1001.17 1001.95 1002.85 1003.87 1004.95 1005.66 1006.31 1006.97 1007.60 1008.30 1009.07 1009.51 1010.27 1010.92 1011.45
991.98 991.10 990.65 989.90 990.17 990.63 989.99 989.25 989.21 988.92 989.50 989.88 989.69 990.23 990.43 990.93 990.77 990.86 990.98 991.38 991.82 992.68 993.90 995.24 995.83 996.85 997.93 998.85 999.93 1001.00 1001.96 1002.73 1003.53 1004.65 1005.47 1006.02 1006.62 1007.23 1008.07 1008.52 1009.11 1009.66 1010.30 1010.70
991.84 991.42 990.77 992.26 992.58 992.81 992.10 989.98 989.17 988.86 989.14 989.23 989.84 989.69 989.79 989.95 991.08 991.39 991.29 991.63 992.32 992.98 993.79 994.91 995.41 996.48 997.54 998.52 999.60 1000.53 1001.52 1002.53 1003.46 1004.34 1005.22 1005.76 1006.78 1007.19 1007.22 1008.06 1008.85 1008.95 1009.34 1009.70
992.14 991.86 992.00 993.63 993.63 993.37 992.89 991.97 991.06 988.84 988.79 989.10 989.39 989.73 991.06 991.54 991.71 991.25 991.73 992.04 992.51 993.25 994.27 995.05 995.71 996.79 997.65 998.63 999.65 1000.52 1001.47 1002.35 1003.13 1003.81 1004.44 1005.06 1005.60 1006.85 1007.28 1007.94 1008.55 1008.77 1008.95 1009.31
991.59 992.40 993.22 994.70 994.38 993.62 994.13 993.12 992.14 991.12 990.45 990.08 990.04 991.47 991.77 992.22 992.07 992.09 992.62 992.89 993.28 993.90 995.23 995.96 996.58 997.34 998.13 998.94 999.81 1000.52 1001.23 1001.94 1003.01 1004.01 1004.86 1005.62 1005.79 1007.10 1007.59 1007.99 1008.68 1008.92 1008.74 1009.19
992.84 993.67 995.22 995.50 995.52 995.26 994.63 994.66 993.58 992.40 991.56 991.53 991.90 992.30 992.39 992.58 992.40 992.84 993.48 993.72 994.31 995.09 995.96 996.72 997.18 997.90 998.62 999.35 1000.11 1000.68 1001.27 1002.30 1003.40 1004.14 1004.71 1005.92 1006.39 1007.27 1008.05 1008.28 1008.43 1008.71 1008.82 1009.03
994.77 995.99 996.16 996.38 996.63 996.14 995.15 995.98 995.50 993.89 992.84 992.83 993.09 993.30 994.15 993.65 993.35 993.49 993.93 994.17 994.88 995.63 996.47 997.41 998.18 998.62 999.24 1000.05 1000.68 1001.44 1002.15 1003.22 1004.08 1004.79 1004.36 1006.38 1007.05 1007.58 1007.94 1008.15 1008.47 1008.87 1008.88 1008.89
995.67 996.72 997.21 997.67 997.22 997.34 997.07 997.25 996.98 995.73 995.17 995.22 995.07 995.02 995.34 994.94 994.94 995.15 994.82 995.39 995.79 996.51 997.15 998.02 998.75 999.50 999.85 1000.26 1000.92 1001.97 1002.82 1003.38 1004.04 1004.59 1005.36 1006.66 1007.51 1008.32 1008.11 1008.54 1008.95 1008.90 1008.58 1008.82
995.73 996.89 997.25 998.79 998.70 998.90 998.40 998.67 998.34 997.23 996.78 996.60 996.28 996.32 996.46 996.33 996.28 996.68 996.40 996.52 997.11 997.73 998.57 999.14 999.68 1000.57 1000.90 1001.09 1001.75 1002.09 1002.59 1003.52 1003.83 1004.46 1005.13 1005.72 1006.80 1008.03 1009.19 1009.36 1009.60 1009.44 1009.23 1008.85
997.82 998.55 999.05 1000.01 1000.49 1000.25 1000.28 1000.31 999.53 998.45 998.28 998.33 998.16 998.02 998.00 997.82 997.94 997.98 997.78 997.80 998.39 998.20 999.50 999.76 1000.27 1001.07 1001.65 1001.87 1000.91 1001.28 1002.53 1003.34 1003.69 1004.11 1004.57 1005.13 1005.76 1006.52 1007.88 1009.69 1009.78 1009.74 1009.83 1009.92
999.10 999.56 1000.53 1001.52 1002.29 1002.20 1001.25 1000.77 1000.01 999.73 999.70 999.46 999.22 999.39 999.53 999.36 999.12 999.20 999.21 999.20 999.59 999.72 1000.34 1000.26 1000.59 1000.93 1001.72 1001.92 1001.82 1002.19 1003.22 1003.96 1003.81 1004.07 1004.77 1005.10 1005.57 1006.04 1006.64 1007.69 1008.49 1009.97 1010.63 1010.66
1001.44 1001.31 1002.00 1003.00 1003.35 1002.68 1002.06 1001.98 1000.56 1000.51 1000.22 1000.00 1000.17 999.99 999.81 1000.12 1000.23 1000.43 1000.10 1000.02 999.91 1000.03 1000.46 1000.92 1001.16 1001.37 1001.59 1002.27 1002.41 1002.85 1003.18 1003.49 1003.58 1004.10 1004.67 1004.95 1005.12 1005.46 1006.10 1006.59 1007.46 1008.54 1009.88 1010.86
1002.91 1003.09 1003.41 1003.24 1003.85 1003.45 1002.62 1001.97 1001.02 1001.44 1001.03 1001.23 1000.70 1000.48 1000.76 1000.86 1001.00 1000.90 1000.91 1000.71 999.98 1000.07 1000.92 1001.18 1001.13 1001.69 1002.26 1002.53 1002.88 1003.12 1003.51 1003.82 1003.72 1003.96 1004.74 1004.73 1004.95 1005.19 1005.64 1006.12 1006.87 1007.75 1008.40 1008.97
1004.05 1004.16 1003.97 1003.69 1003.13 1002.88 1002.34 1001.88 1001.53 1001.32 1001.50 1001.32 1001.31 1001.57 1001.41 1001.31 1001.43 1001.47 1001.57 1001.35 1001.21 1001.12 1001.16 1001.33 1001.61 1002.12 1002.28 1002.65 1002.81 1002.73 1003.08 1003.89 1003.63 1003.84 1004.21 1004.31 1004.52 1004.72 1005.08 1005.59 1006.12 1006.78 1007.56 1008.33
1003.80 1004.16 1004.03 1003.58 1003.56 1002.60 1001.98 1002.04 1001.80 1001.72 1001.57 1001.36 1001.37 1001.16 1001.38 1001.80 1001.70 1001.73 1001.88 1001.59 1001.61 1001.62 1001.55 1001.93 1002.36 1002.50 1002.52 1002.73 1002.62 1002.68 1002.70 1003.16 1003.47 1003.26 1003.64 1004.14 1004.36 1004.61 1004.97 1005.26 1005.70 1006.39 1007.23 1009.11
1003.24 1003.42 1003.59 1003.13 1002.82 1002.57 1002.11 1002.01 1001.99 1001.86 1001.62 1001.68 1001.74 1001.90 1001.99 1002.02 1002.05 1002.16 1001.73 1001.57 1001.92 1002.01 1002.54 1002.86 1003.27 1002.77 1002.89 1003.44 1003.32 1002.45 1002.47 1002.80 1003.09 1003.27 1003.59 1004.24 1004.65 1004.47 1004.71 1005.06 1005.48 1006.01 1006.76 1007.79
1003.02 1002.98 1002.92 1002.90 1002.72 1002.46 1002.24 1002.15 1002.32 1002.42 1002.30 1001.98 1001.99 1001.91 1001.93 1002.07 1001.91 1001.93 1002.22 1002.39 1002.55 1002.60 1003.01 1003.38 1003.19 1003.04 1003.26 1004.08 1003.80 1002.54 1002.74 1002.98 1003.14 1003.43 1003.94 1004.11 1004.06 1004.40 1004.77 1005.29 1005.60 1006.40 1006.71 1007.31
1002.96 1003.00 1002.90 1002.90 1002.88 1002.90 1002.73 1002.81 1002.60 1002.59 1002.53 1002.51 1002.35 1002.36 1002.37 1002.18 1002.24 1001.92 1001.90 1002.40 1003.30 1003.57 1003.57 1003.37 1003.10 1003.20 1003.34 1003.70 1003.40 1002.86 1003.01 1003.22 1003.39 1003.44 1003.88 1004.17 1004.10 1004.60 1004.70 1005.35 1005.80 1006.02 1006.39 1006.76
1003.56 1003.29 1003.16 1003.30 1003.10 1003.17 1003.13 1003.17 1002.96 1003.13 1003.06 1002.99 1002.88 1002.49 1002.10 1002.19 1002.33 1002.57 1003.02 1003.28 1004.00 1004.35 1003.46 1003.37 1003.54 1004.47 1004.10 1004.44 1003.15 1003.20 1003.31 1003.52 1003.46 1003.51 1003.73 1004.35 1004.28 1004.29 1004.72 1005.14 1005.06 1005.60 1005.74 1005.74
1003.84 1003.64 1003.64 1003.60 1003.44 1003.38 1003.38 1003.55 1003.46 1003.47 1003.53 1003.41 1003.57 1003.23 1002.95 1002.68 1002.44 1002.80 1003.13 1004.31 1004.24 1004.56 1003.97 1003.97 1005.15 1005.14 1004.87 1003.95 1003.77 1003.77 1003.78 1003.78 1003.77 1003.76 1003.74 1003.98 1003.99 1004.10 1004.27 1004.34 1004.56 1004.80 1004.79 1005.33
1003.97 1003.87 1003.99 1003.91 1003.54 1003.38 1003.47 1003.71 1003.69 1003.98 1003.64 1003.53 1003.75 1003.68 1003.34 1002.74 1003.11 1003.33 1004.14 1004.76 1004.87 1004.95 1004.75 1004.55 1004.98 1005.24 1005.39 1003.95 1003.89 1003.84 1003.80 1003.77 1003.87 1003.81 1003.85 1004.34 1004.20 1004.04 1004.02 1004.24 1004.36 1005.00 1005.84 1006.04
1004.37 1004.27 1004.09 1003.91 1003.23 1003.13 1003.56 1003.79 1003.55 1003.27 1003.44 1003.64 1003.66 1003.39 1003.49 1003.50 1003.64 1003.88 1004.00 1004.10 1004.88 1004.98 1003.79 1004.82 1005.14 1005.34 1004.55 1003.67 1003.68 1003.70 1003.75 1003.90 1004.01 1004.00 1004.04 1004.10 1004.01 1003.86 1003.84 1003.92 1003.99 1004.18 1004.50 1004.58
1004.98 1004.81 1004.56 1004.36 1004.04 1003.82 1003.64 1003.52 1003.23 1003.14 1003.33 1003.34 1003.16 1003.07 1003.25 1003.45 1003.41 1003.57 1003.55 1003.98 1003.94 1004.02 1003.55 1003.08 1003.52 1004.20 1003.73 1003.28 1003.31 1003.45 1003.61 1003.67 1003.99 1004.00 1003.99 1003.87 1003.66 1003.83 1003.52 1003.56 1003.80 1003.95 1004.25 1004.16
1005.50 1005.44 1004.69 1004.38 1004.26 1004.20 1004.19 1004.43 1003.99 1003.49 1003.58 1003.96 1003.68 1003.35 1003.52 1003.58 1003.48 1003.81 1003.80 1003.53 1003.26 1003.08 1002.87 1002.70 1002.70 1002.91 1003.06 1002.95 1002.83 1003.06 1003.34 1003.35 1003.54 1003.45 1003.32 1003.28 1003.34 1003.41 1003.45 1003.45 1003.54 1003.59 1003.67 1003.70
Thickness
5765 5783 5788 5783 5776 5781 5782 5794 5786 5806 5811 5828 5843 5848 5858 5871 5878 5879 5877 5875 5879 5880 5880 5875 5870 5868 5862 5858 5855 5851 5841 5833 5824 5814 5802 5796 5794 5787 5780 5772 5763 5753 5741 5735
5747 5769 5776 5774 5785 5785 5785 5788 5790 5801 5805 5841 5848 5851 5853 5862 5870 5871 5875 5875 5878 5877 5877 5873 5871 5865 5859 5855 5851 5847 5841 5834 5824 5813 5801 5798 5789 5784 5774 5768 5763 5751 5742 5732
5728 5758 5763 5754 5777 5788 5789 5795 5795 5784 5809 5830 5832 5840 5849 5858 5866 5870 5879 5883 5879 5879 5880 5876 5872 5865 5858 5854 5851 5844 5839 5832 5821 5812 5802 5794 5787 5778 5773 5763 5752 5743 5735 5725
5733 5752 5723 5776 5804 5802 5793 5801 5807 5808 5813 5823 5830 5847 5855 5865 5865 5869 5878 5884 5885 5882 5877 5873 5873 5865 5858 5853 5848 5841 5836 5829 5820 5810 5802 5795 5786 5777 5767 5758 5749 5740 5731 5724
5724 5741 5760 5777 5782 5776 5780 5784 5807 5807 5811 5820 5833 5835 5836 5854 5865 5870 5876 5882 5885 5885 5879 5872 5869 5863 5855 5851 5844 5834 5826 5820 5814 5803 5794 5787 5777 5767 5760 5752 5742 5737 5728 5721
5734 5725 5728 5740 5751 5762 5768 5755 5806 5810 5807 5815 5820 5801 5828 5857 5857 5859 5869 5874 5873 5875 5873 5866 5865 5861 5851 5844 5836 5827 5820 5812 5804 5796 5786 5778 5765 5759 5757 5746 5736 5734 5727 5722
5720 5726 5751 5731 5744 5758 5733 5756 5776 5811 5813 5814 5808 5823 5825 5836 5843 5857 5859 5863 5867 5865 5858 5856 5856 5850 5840 5833 5823 5820 5814 5805 5797 5790 5782 5776 5768 5755 5746 5737 5730 5726 5721 5714
5734 5717 5715 5723 5737 5740 5742 5762 5770 5781 5791 5799 5811 5806 5815 5822 5832 5840 5842 5848 5852 5850 5843 5842 5841 5835 5826 5821 5818 5812 5805 5797 5786 5778 5769 5759 5755 5741 5733 5726 5717 5711 5710 5702
5716 5720 5710 5722 5722 5736 5745 5744 5757 5770 5782 5787 5789 5795 5807 5813 5824 5828 5829 5833 5836 5832 5827 5826 5826 5821 5811 5807 5804 5799 5793 5782 5771 5766 5760 5744 5735 5724 5716 5713 5707 5701 5695 5689
5698 5690 5698 5708 5712 5724 5735 5732 5740 5760 5772 5777 5777 5785 5785 5800 5811 5817 5819 5821 5822 5819 5813 5807 5805 5804 5798 5793 5788 5780 5772 5762 5753 5744 5748 5726 5718 5712 5707 5703 5697 5689 5684 5680
5685 5685 5690 5692 5701 5708 5714 5718 5722 5741 5749 5751 5759 5765 5771 5782 5789 5794 5802 5804 5806 5802 5799 5793 5791 5786 5784 5780 5774 5762 5755 5749 5740 5733 5725 5708 5698 5691 5695 5687 5682 5681 5680 5672
5684 5687 5689 5676 5682 5686 5693 5696 5704 5718 5726 5736 5745 5750 5758 5764 5772 5772 5777 5782 5782 5780 5774 5772 5771 5763 5761 5761 5754 5749 5742 5732 5730 5721 5714 5705 5695 5685 5666 5663 5657 5656 5656 5661
5670 5671 5670 5662 5661 5671 5671 5674 5688 5705 5713 5716 5724 5732 5739 5744 5749 5751 5759 5761 5756 5760 5752 5756 5753 5746 5743 5740 5748 5738 5731 5722 5718 5710 5704 5698 5692 5685 5672 5651 5643 5641 5637 5635
5660 5658 5647 5641 5633 5638 5658 5669 5678 5686 5692 5702 5708 5713 5717 5723 5730 5733 5735 5739 5737 5738 5734 5738 5735 5731 5726 5727 5728 5722 5712 5700 5703 5698 5689 5685 5679 5673 5667 5656 5648 5633 5618 5619
5631 5638 5632 5625 5623 5631 5644 5650 5666 5670 5679 5687 5692 5698 5705 5704 5704 5706 5715 5719 5724 5727 5723 5719 5717 5713 5715 5708 5706 5703 5698 5693 5692 5685 5679 5674 5671 5665 5657 5651 5642 5631 5616 5605
5609 5607 5615 5620 5613 5621 5634 5641 5653 5651 5665 5667 5676 5683 5684 5686 5688 5692 5697 5700 5712 5711 5706 5704 5705 5701 5696 5694 5691 5688 5683 5675 5678 5675 5664 5662 5658 5652 5646 5639 5631 5623 5617 5612
5594 5591 5600 5608 5620 5627 5633 5641 5646 5653 5654 5658 5663 5665 5670 5673 5675 5678 5681 5686 5689 5692 5695 5693 5690 5687 5686 5682 5679 5679 5675 5666 5665 5662 5656 5653 5648 5643 5638 5632 5625 5619 5611 5604
5593 5596 5599 5607 5611 5624 5634 5636 5644 5647 5650 5657 5661 5667 5666 5662 5665 5668 5669 5675 5676 5678 5681 5680 5677 5675 5673 5670 5670 5668 5666 5660 5654 5654 5650 5643 5638 5633 5628 5623 5618 5610 5603 5588
5602 5599 5599 5610 5616 5622 5632 5634 5638 5644 5650 5652 5653 5653 5655 5657 5658 5657 5665 5667 5663 5664 5662 5663 5657 5663 5659 5652 5651 5658 5656 5651 5646 5644 5640 5629 5626 5626 5620 5615 5610 5606 5599 5590
5600 5605 5608 5613 5619 5624 5628 5634 5633 5634 5639 5645 5647 5649 5649 5649 5652 5652 5650 5648 5650 5652 5652 5649 5651 5650 5645 5635 5636 5646 5642 5639 5636 5633 5628 5624 5623 5617 5612 5603 5602 5594 5591 5585
5601 5603 5607 5610 5613 5617 5621 5623 5627 5628 5632 5635 5636 5636 5637 5641 5643 5647 5646 5641 5637 5637 5638 5637 5639 5636 5634 5630 5631 5634 5632 5628 5626 5624 5619 5615 5613 5606 5604 5597 5593 5590 5586 5582
5592 5598 5602 5603 5607 5610 5613 5615 5620 5618 5620 5622 5624 5630 5634 5634 5633 5631 5629 5626 5625 5618 5631 5629 5625 5617 5619 5615 5625 5623 5620 5617 5616 5615 5611 5604 5603 5602 5596 5592 5592 5586 5585 5584
5589 5593 5594 5595 5599 5602 5605 5604 5606 5607 5607 5608 5607 5611 5614 5619 5622 5617 5614 5610 5615 5611 5618 5613 5602 5602 5603 5610 5609 5607 5606 5604 5603 5603 5602 5600 5598 5596 5592 5591 5589 5587 5587 5581
5587 5589 5589 5591 5596 5597 5596 5596 5598 5596 5600 5602 5600 5602 5604 5609 5607 5608 5602 5596 5594 5596 5601 5598 5594 5590 5585 5598 5597 5596 5596 5596 5594 5594 5593 5583 5588 5589 5588 5585 5584 5578 5571 5568
5582 5584 5586 5587 5594 5596 5592 5591 5594 5597 5595 5593 5593 5597 5597 5598 5594 5594 5595 5596 5585 5587 5598 5583 5580 5578 5585 5591 5589 5588 5587 5585 5585 5584 5582 5581 5581 5582 5582 5581 5580 5577 5575 5573
5572 5573 5576 5579 5581 5584 5586 5588 5589 5591 5590 5588 5590 5593 5591 5589 5590 5589 5590 5583 5587 5584 5587 5589 5585 5579 5582 5585 5584 5581 5579 5578 5575 5574 5574 5574 5575 5573 5575 5574 5572 5570 5568 5568
5563 5560 5571 5573 5574 5574 5575 5572 5574 5579 5579 5576 5577 5581 5580 5580 5580 5576 5574 5579 5581 5581 5582 5581 5581 5579 5577 5577 5577 5573 5570 5570 5568 5569 5570 5569 5568 5566 5565 5565 5564 5564 5563 5562